Taos, NM

8:14 PM MDT on May 27, 2017 (GMT -0600)
Taos Municipal

Weather History for KSKX - March, 2013

Change the Weather History Date:

Thursday, March 21, 2013

  Actual Average Record
Temperature  
Mean Temperature 46 °F -  
Max Temperature 60 °F 55 °F 73 °F (1997)
Min Temperature 32 °F 23 °F 15 °F (2012)
Degree Days  
Heating Degree Days 18    
Moisture  
Dew Point 19 °F    
Average Humidity 36    
Maximum Humidity 60    
Minimum Humidity 15    
Precipitation  
Precipitation 0.00 in - - ()
Sea Level Pressure  
Sea Level Pressure 29.81 in    
Wind  
Wind Speed 10 mph (West)    
Max Wind Speed 37 mph    
Max Gust Speed 50 mph    
Visibility 10 miles    
Events      
Averages and records for this station are not official NWS values.
T = Trace of Precipitation, MM = Missing Value Source: NWS Daily Summary

Daily Weather History Graph

Daily Weather History Graph

Search for Another Location

Airport or City:

Trip Planner

Search our weather history database for the weather conditions in past years. The results will help you decide how hot, cold, wet, or windy it might be!

Date:

Astronomy

Mar. 21, 2013 Rise Set
Actual Time 7:04 AM MDT 7:15 PM MDT
Civil Twilight 6:38 AM MDT 7:41 PM MDT
Nautical Twilight 6:08 AM MDT 8:11 PM MDT
Astronomical Twilight 5:38 AM MDT 8:42 PM MDT
Moon 1:55 PM MDT (3/21) 3:19 AM MDT (3/21)
Length of Visible Light 13h 02m
Length of Day
12h 11m
Waxing Gibbous, 69% of the Moon is Illuminated
Mar 21
Waxing Gibbous
Mar 27
Full
Apr 2
Last Quarter
Apr 10
New
Apr 18
First Quarter

Hourly Weather History & Observations

Time (MDT) Temp. Windchill Dew Point Humidity Pressure Visibility Wind Dir Wind Speed Gust Speed Precip Events Conditions
12:15 AM 44.6 °F 43.1 °F 24.8 °F 46% 29.95 in 10.0 mi SW 3.5 mph - N/A   Overcast
12:35 AM 44.6 °F 41.4 °F 23.0 °F 43% 29.95 in 10.0 mi SW 5.8 mph - N/A   Overcast
12:55 AM 44.6 °F 40.2 °F 23.0 °F 43% 29.95 in 10.0 mi SW 8.1 mph - N/A   Overcast
1:15 AM 44.6 °F 42.2 °F 21.2 °F 39% 29.94 in 10.0 mi SW 4.6 mph - N/A   Overcast
1:35 AM 42.8 °F - 23.0 °F 46% 29.94 in 10.0 mi Calm Calm - N/A   Overcast
1:55 AM 42.8 °F 41.1 °F 23.0 °F 46% 29.93 in 10.0 mi SW 3.5 mph - N/A   Overcast
2:15 AM 42.8 °F 40.1 °F 23.0 °F 46% 29.92 in 10.0 mi SSW 4.6 mph - N/A   Overcast
2:35 AM 42.8 °F 40.1 °F 23.0 °F 46% 29.92 in 10.0 mi South 4.6 mph - N/A   Overcast
2:55 AM 42.8 °F - 24.8 °F 49% 29.91 in 10.0 mi Calm Calm - N/A   Overcast
3:15 AM 44.6 °F - 24.8 °F 46% 29.90 in 10.0 mi Calm Calm - N/A   Overcast
3:35 AM 44.6 °F - 24.8 °F 46% 29.89 in 10.0 mi Calm Calm - N/A   Overcast
3:55 AM 42.8 °F - 24.8 °F 49% 29.88 in 10.0 mi Calm Calm - N/A   Overcast
4:15 AM 42.8 °F - 23.0 °F 46% 29.87 in 10.0 mi Calm Calm - N/A   Overcast
4:35 AM 41.0 °F 38.0 °F 24.8 °F 53% 29.86 in 10.0 mi East 4.6 mph - N/A   Overcast
4:55 AM 41.0 °F 38.0 °F 24.8 °F 53% 29.85 in 10.0 mi East 4.6 mph - N/A   Overcast
5:15 AM 39.2 °F 34.2 °F 24.8 °F 56% 29.84 in 10.0 mi East 6.9 mph - N/A   Mostly Cloudy
5:35 AM 37.4 °F 32.1 °F 23.0 °F 56% 29.84 in 10.0 mi SE 6.9 mph - N/A   Scattered Clouds
5:55 AM 37.4 °F 32.8 °F 23.0 °F 56% 29.84 in 10.0 mi SSE 5.8 mph - N/A   Scattered Clouds
6:15 AM 37.4 °F 33.8 °F 23.0 °F 56% 29.84 in 10.0 mi SSE 4.6 mph - N/A   Mostly Cloudy
6:35 AM 39.2 °F 35.9 °F 24.8 °F 56% 29.84 in 10.0 mi SE 4.6 mph - N/A   Overcast
6:55 AM 39.2 °F 35.9 °F 24.8 °F 56% 29.84 in 10.0 mi SSW 4.6 mph - N/A   Mostly Cloudy
7:15 AM 39.2 °F 35.0 °F 23.0 °F 52% 29.83 in 10.0 mi SSW 5.8 mph - N/A   Partly Cloudy
7:35 AM 37.4 °F 32.1 °F 23.0 °F 56% 29.83 in 10.0 mi SW 6.9 mph - N/A   Clear
7:55 AM 35.6 °F 31.7 °F 21.2 °F 56% 29.83 in 10.0 mi SSW 4.6 mph - N/A   Partly Cloudy
8:15 AM 37.4 °F 33.8 °F 23.0 °F 56% 29.83 in 10.0 mi SSW 4.6 mph - N/A   Clear
8:35 AM 37.4 °F 32.8 °F 24.8 °F 60% 29.83 in 10.0 mi SSW 5.8 mph - N/A   Clear
8:55 AM 42.8 °F 36.6 °F 26.6 °F 53% 29.83 in 10.0 mi SSW 11.5 mph - N/A   Scattered Clouds
9:15 AM 44.6 °F 40.2 °F 24.8 °F 46% 29.83 in 10.0 mi SW 8.1 mph - N/A   Overcast
9:35 AM 44.6 °F 38.4 °F 26.6 °F 49% 29.82 in 10.0 mi West 12.7 mph 23.0 mph N/A   Overcast
9:55 AM 46.4 °F 39.8 °F 28.4 °F 50% 29.82 in 10.0 mi West 16.1 mph - N/A   Mostly Cloudy
10:15 AM 46.4 °F 41.5 °F 26.6 °F 46% 29.82 in 10.0 mi West 10.4 mph - N/A   Overcast
10:35 AM 50.0 °F - 28.4 °F 43% 29.80 in 10.0 mi West 16.1 mph 23.0 mph N/A   Mostly Cloudy
10:55 AM 51.8 °F - 26.6 °F 38% 29.79 in 10.0 mi West 18.4 mph 26.5 mph N/A   Mostly Cloudy
11:15 AM 53.6 °F - 26.6 °F 35% 29.79 in 10.0 mi WNW 20.7 mph 33.4 mph N/A   Scattered Clouds
11:35 AM 53.6 °F - 26.6 °F 35% 29.78 in 10.0 mi WNW 26.5 mph 34.5 mph N/A   Scattered Clouds
11:55 AM 53.6 °F - 24.8 °F 33% 29.77 in 10.0 mi WNW 24.2 mph 35.7 mph N/A   Mostly Cloudy
12:15 PM 57.2 °F - 23.0 °F 27% 29.76 in 10.0 mi West 24.2 mph 32.2 mph N/A   Mostly Cloudy
12:35 PM 55.4 °F - 24.8 °F 31% 29.75 in 10.0 mi WNW 23.0 mph 36.8 mph N/A   Scattered Clouds
12:55 PM 57.2 °F - 21.2 °F 25% 29.73 in 10.0 mi WNW 26.5 mph 35.7 mph N/A   Partly Cloudy
1:15 PM 57.2 °F - 17.6 °F 21% 29.72 in 10.0 mi West 26.5 mph 36.8 mph N/A   Partly Cloudy
1:35 PM 59.0 °F - 17.6 °F 20% 29.72 in 10.0 mi West 29.9 mph 40.3 mph N/A   Partly Cloudy
1:55 PM 59.0 °F - 15.8 °F 19% 29.70 in 10.0 mi West 27.6 mph 43.7 mph N/A   Clear
2:15 PM 59.0 °F - 12.2 °F 16% 29.69 in 10.0 mi West 26.5 mph 49.5 mph N/A   Clear
2:35 PM 60.8 °F - 14.0 °F 16% 29.68 in 10.0 mi WNW 28.8 mph 40.3 mph N/A   Clear
2:55 PM 60.8 °F - 12.2 °F 15% 29.67 in 10.0 mi West 33.4 mph 43.7 mph N/A   Clear
3:15 PM 59.0 °F - 12.2 °F 16% 29.66 in 10.0 mi West 36.8 mph 46.0 mph N/A   Clear
3:35 PM 57.2 °F - 12.2 °F 17% 29.67 in 10.0 mi West 33.4 mph 47.2 mph N/A   Clear
3:55 PM 60.8 °F - 14.0 °F 16% 29.67 in 10.0 mi West 28.8 mph 40.3 mph N/A   Clear
4:15 PM 59.0 °F - 12.2 °F 16% 29.67 in 10.0 mi West 29.9 mph 41.4 mph N/A   Clear
4:35 PM 57.2 °F - 12.2 °F 17% 29.68 in 10.0 mi West 27.6 mph 40.3 mph N/A   Clear
4:55 PM 57.2 °F - 12.2 °F 17% 29.69 in 10.0 mi WNW 26.5 mph 35.7 mph N/A   Clear
5:15 PM 57.2 °F - 12.2 °F 17% 29.69 in 10.0 mi West 26.5 mph 35.7 mph N/A   Clear
5:35 PM 57.2 °F - 12.2 °F 17% 29.70 in 10.0 mi WNW 27.6 mph 34.5 mph N/A   Clear
5:55 PM 55.4 °F - 12.2 °F 18% 29.71 in 10.0 mi WNW 21.9 mph 36.8 mph N/A   Clear
6:15 PM 55.4 °F - 10.4 °F 17% 29.72 in 10.0 mi WNW 25.3 mph 33.4 mph N/A   Clear
6:35 PM 53.6 °F - 6.8 °F 15% 29.73 in 10.0 mi WNW 23.0 mph 29.9 mph N/A   Clear
6:55 PM 51.8 °F - 5.0 °F 15% 29.74 in 10.0 mi WNW 23.0 mph 28.8 mph N/A   Clear
7:15 PM 50.0 °F - 5.0 °F 16% 29.76 in 10.0 mi WNW 17.3 mph - N/A   Clear
7:35 PM 48.2 °F - 5.0 °F 17% 29.77 in 10.0 mi WNW 15.0 mph 19.6 mph N/A   Clear
7:55 PM 46.4 °F 41.9 °F 6.8 °F 20% 29.78 in 10.0 mi WNW 9.2 mph - N/A   Clear
8:15 PM 46.4 °F 40.4 °F 12.2 °F 25% 29.79 in 10.0 mi West 13.8 mph 19.6 mph N/A   Clear
8:55 PM 44.6 °F 39.2 °F 10.4 °F 25% 29.83 in 10.0 mi NNW 10.4 mph 18.4 mph N/A   Clear
9:15 PM 46.4 °F 41.1 °F 12.2 °F 25% 29.83 in 10.0 mi WNW 11.5 mph 20.7 mph N/A   Clear
9:35 PM 42.8 °F 37.0 °F 12.2 °F 29% 29.84 in 10.0 mi North 10.4 mph - N/A   Clear
9:55 PM 39.2 °F 33.0 °F 15.8 °F 39% 29.85 in 10.0 mi North 9.2 mph - N/A   Clear
10:15 PM 37.4 °F 30.8 °F 14.0 °F 38% 29.86 in 10.0 mi NNW 9.2 mph - N/A   Clear
10:35 PM 33.8 °F 27.0 °F 12.2 °F 41% 29.85 in 10.0 mi North 8.1 mph - N/A   Clear
10:55 PM 33.8 °F 29.6 °F 14.0 °F 44% 29.86 in 10.0 mi West 4.6 mph - N/A   Clear
11:15 PM 35.6 °F 30.7 °F 15.8 °F 44% 29.86 in 10.0 mi South 5.8 mph - N/A   Clear
11:35 PM 33.8 °F 27.0 °F 12.2 °F 41% 29.85 in 10.0 mi South 8.1 mph - N/A   Clear
11:55 PM 32.0 °F 27.5 °F 12.2 °F 44% 29.85 in 10.0 mi South 4.6 mph - N/A   Clear